Location: Blue Mountain Vista Observatory
(40.6992°N, 75.9422°W)
Time: 23:13:10
(UTC-04:00)

IDEFIX/ARIANE 42P - Visible Passes

Search period start: 21 October 2014 00:00
Search period end: 31 October 2014 00:00
Orbit: 786 x 803 km, 98.3° (Epoch: 21 October)

Date Brightness Start Highest point End Pass type
(mag) Time Alt. Az. Time Alt. Az. Time Alt. Az.
21 Oct 4.2 19:07:38 14° ENE 19:08:50 15° ENE 19:11:37 10° NNE visible
21 Oct 2.8 20:48:28 65° NW 20:48:28 65° NW 20:53:04 10° NNW visible
22 Oct 2.6 20:20:10 58° NE 20:20:10 58° NE 20:24:52 10° N visible
22 Oct 5.2 22:01:00 15° WNW 22:01:00 15° WNW 22:02:56 10° NW visible
23 Oct 3.2 19:51:52 34° ENE 19:51:52 34° ENE 19:56:24 10° N visible
23 Oct 4.5 21:32:43 26° WNW 21:32:43 26° WNW 21:35:52 10° NW visible
24 Oct 3.8 19:23:34 20° ENE 19:23:50 20° ENE 19:27:32 10° NNE visible
24 Oct 3.6 21:04:24 42° NW 21:04:24 42° NW 21:08:10 10° NNW visible
25 Oct 4.4 18:55:16 11° ENE 18:56:05 11° ENE 18:57:36 10° NE visible
25 Oct 3.0 20:36:06 54° N 20:36:06 54° N 20:40:08 10° NNW visible
26 Oct 3.1 20:07:48 41° NE 20:07:48 41° NE 20:11:49 10° N visible
26 Oct 5.1 21:48:38 17° WNW 21:48:38 17° WNW 21:50:35 10° NW visible
27 Oct 3.6 19:39:30 26° NE 19:39:30 26° NE 19:43:12 10° N visible
27 Oct 4.4 21:20:20 28° NW 21:20:20 28° NW 21:23:10 10° NNW visible
28 Oct 4.1 19:11:11 16° ENE 19:11:11 16° ENE 19:14:03 10° NNE visible
28 Oct 3.7 20:52:01 39° NNW 20:52:01 39° NNW 20:55:18 10° NNW visible
29 Oct 3.3 20:23:43 40° N 20:23:43 40° N 20:27:08 10° N visible
29 Oct 5.5 22:04:33 11° WNW 22:04:33 11° WNW 22:04:58 10° NW visible
30 Oct 3.5 19:55:24 30° NE 19:55:24 30° NE 19:58:41 10° N visible
30 Oct 4.9 21:36:14 19° NW 21:36:14 19° NW 21:38:02 10° NW visible
